Theta_e
357 358 358 360 364 358 356 356 357 357 357 353 353 353 349 350 353 351 352 356 355 355 355 356 358 360 362 361 362 362 360 360 360 361 360 360 360 359 358 357 357 358 357
361 361 362 351 355 355 355 353 361 357 357 354 351 352 351 352 355 354 355 355 357 356 356 356 358 358 359 362 364 364 363 364 364 363 364 363 361 360 360 360 359 359 358
361 363 361 356 362 365 358 355 354 365 361 354 354 350 350 352 355 357 354 355 355 357 357 356 360 360 362 362 363 366 364 364 364 363 364 364 363 361 361 362 361 360 361
367 363 362 359 365 360 360 364 355 364 358 355 354 352 349 353 352 356 355 356 355 353 358 361 361 361 361 359 363 366 365 364 364 364 365 364 364 363 363 362 361 361 361
362 367 366 360 368 372 366 366 358 363 361 358 354 354 355 351 352 350 353 356 353 355 355 359 362 363 361 361 362 364 367 365 365 364 363 363 363 363 363 362 361 361 361
362 367 360 362 362 366 366 362 359 354 359 361 352 353 355 356 357 352 351 353 353 353 353 358 359 359 364 364 364 364 366 365 364 364 363 362 362 362 361 361 360 359 360
367 362 364 361 360 364 362 362 363 360 356 356 358 352 354 353 351 353 350 352 352 350 350 354 361 358 360 363 363 364 366 366 366 366 363 362 361 361 361 360 360 360 360
365 362 364 360 363 358 361 361 362 361 359 354 358 346 349 350 348 349 353 350 353 351 352 353 356 358 357 359 360 363 364 365 366 366 365 364 362 362 361 359 359 359 359
363 367 365 363 365 361 362 363 358 358 359 356 356 350 347 337 352 347 351 351 353 351 350 353 355 359 361 356 362 362 363 361 365 366 366 364 363 361 361 359 358 358 358
363 361 365 367 364 357 364 358 356 367 365 358 361 354 350 354 342 341 349 351 351 356 355 358 354 356 362 356 360 363 363 360 361 364 364 364 361 360 360 359 359 358 358
362 362 363 364 363 361 364 363 361 365 357 353 348 349 357 350 353 352 349 349 348 351 353 351 354 353 354 357 357 358 362 360 359 360 361 362 363 362 361 360 359 360 360
357 361 362 366 364 363 364 364 365 362 360 360 361 357 351 345 356 346 350 354 346 347 349 352 356 353 355 354 358 361 362 359 358 358 359 360 361 362 362 363 362 362 362
354 357 365 364 362 365 366 369 362 360 366 357 363 351 352 351 354 349 358 351 349 348 348 350 352 350 355 357 356 358 358 354 354 353 352 353 356 358 361 362 361 363 364
355 362 362 361 363 364 362 364 360 357 361 359 361 362 352 354 352 358 355 351 348 343 343 354 356 355 353 358 361 354 355 349 350 349 348 348 350 353 355 357 359 359 360
357 361 361 362 362 365 364 366 359 361 361 362 361 361 357 353 354 359 354 356 350 346 350 343 349 358 358 358 358 357 357 352 347 347 346 346 346 348 349 351 352 352 353
361 363 360 363 362 364 367 369 361 362 362 357 354 364 364 354 356 354 364 362 352 347 346 349 353 359 360 357 360 361 359 353 349 347 346 344 344 345 346 347 347 347 348
362 364 367 365 363 364 366 367 366 364 358 361 362 362 362 367 354 354 357 354 353 355 344 352 354 366 365 361 362 362 361 362 355 345 344 343 342 342 344 344 344 344 344
361 364 364 365 365 366 368 364 362 360 362 359 360 355 360 355 364 365 355 359 360 357 351 356 361 354 359 367 366 366 360 357 356 346 343 342 340 339 339 339 339 339 338
361 362 365 365 367 363 363 362 363 361 359 360 359 357 358 361 362 357 360 358 355 353 363 350 351 353 358 359 361 364 365 364 356 348 343 341 339 338 338 336 335 333 332
362 363 361 365 365 364 365 361 361 361 360 359 360 361 357 361 361 364 363 364 357 358 358 353 348 349 348 359 357 349 349 357 354 351 351 351 346 341 339 336 335 334 329
359 364 364 352 359 363 357 362 360 360 362 361 360 359 361 359 353 358 364 363 363 354 355 350 346 345 347 349 354 348 344 344 351 347 344 344 347 353 352 339 345 339 333
366 366 362 361 361 359 344 341 353 357 358 358 358 356 361 358 353 345 345 346 354 362 357 348 348 343 356 354 348 345 342 338 335 344 343 340 344 339 341 342 345 341 333
364 363 362 361 358 358 341 336 342 353 356 359 361 363 359 354 354 362 345 342 343 343 346 360 356 356 359 359 356 352 354 344 340 340 341 334 339 338 343 344 340 337 332
357 357 359 360 359 358 335 330 333 351 353 355 357 360 358 359 361 362 361 357 354 354 354 352 357 359 360 361 355 352 351 348 343 342 348 336 341 340 346 347 339 336 330
351 353 355 354 352 353 330 327 336 347 345 349 352 356 357 357 347 336 361 358 357 357 341 335 333 332 334 334 336 340 333 331 332 335 349 340 339 341 343 345 352 333 329
350 344 346 351 343 350 331 323 332 342 342 343 349 353 338 347 336 329 349 355 354 354 350 346 345 335 335 338 331 339 335 331 333 333 348 340 344 343 338 349 348 348 346
Wind_Speed
4 3 1 4 2 5 3 4 5 4 3 6 6 11 5 7 4 3 5 17 16 16 17 17 16 16 14 14 14 13 13 12 12 12 12 12 10 10 10 10 10 9 9
3 4 3 6 6 5 4 3 5 6 5 6 9 8 8 8 7 6 5 9 17 17 17 17 18 17 17 16 16 15 14 13 13 13 12 11 9 11 12 12 12 12 11
6 3 4 5 5 5 5 5 6 7 6 7 6 9 9 8 8 8 7 7 11 18 19 18 19 18 17 17 17 16 15 14 14 13 12 12 12 12 13 12 12 13 11
7 3 7 6 5 7 5 4 7 6 7 7 6 5 8 5 9 8 10 7 8 10 16 20 20 19 19 21 18 17 18 18 17 16 13 12 12 13 13 14 13 13 13
8 6 6 3 5 4 4 5 5 5 6 6 7 6 5 7 6 9 11 8 8 10 10 21 22 21 22 22 21 20 19 19 18 16 15 15 15 14 14 15 14 14 13
7 5 8 4 5 5 4 4 6 6 7 5 7 3 3 5 3 8 5 8 11 14 12 13 13 13 20 21 21 20 20 19 19 18 18 16 15 15 14 14 15 14 14
4 7 7 7 7 6 4 4 5 4 5 6 3 3 4 8 10 6 8 12 12 8 14 9 11 9 13 25 23 21 21 21 20 20 19 15 15 14 14 15 15 15 14
7 9 8 8 7 1 5 5 5 3 4 6 2 2 3 3 8 10 6 8 11 9 13 12 11 9 7 11 16 22 20 20 20 19 17 17 15 15 16 16 15 14 14
11 8 7 9 5 7 5 6 7 6 6 5 3 3 3 3 2 5 6 5 8 10 9 7 8 10 10 11 9 17 22 21 20 20 19 18 17 16 16 15 15 14 14
8 10 10 7 5 5 7 7 7 4 6 5 4 7 6 5 2 2 2 3 4 5 7 6 8 11 11 11 14 10 22 22 21 21 19 18 17 16 15 15 15 15 15
6 8 8 8 6 8 10 6 7 6 6 8 4 5 6 6 8 3 4 3 5 7 6 4 8 10 12 12 9 12 20 19 18 19 19 18 16 16 17 16 16 16 16
7 9 11 8 9 9 9 8 8 8 8 7 5 4 5 6 4 5 2 5 7 9 4 9 5 5 10 9 8 9 9 14 18 17 15 15 15 16 17 18 17 17 18
5 9 7 8 10 10 9 7 6 7 7 9 7 9 6 5 3 4 3 5 7 6 5 10 7 8 10 6 9 8 11 13 13 11 11 13 15 16 16 16 16 16 17
6 4 6 7 11 10 9 9 8 8 10 9 10 8 9 6 5 4 3 4 7 7 5 9 8 3 5 6 3 6 7 10 11 14 15 14 14 14 14 15 14 14 14
7 6 9 9 9 10 12 12 9 10 10 7 9 8 9 7 7 4 6 7 7 4 2 6 9 8 7 7 7 8 9 12 14 13 12 13 13 14 16 15 14 13 12
6 7 10 11 10 11 9 9 10 11 10 9 9 8 9 8 7 7 5 3 4 8 4 6 6 5 4 3 4 7 8 6 11 12 12 13 13 13 14 14 14 14 14
7 9 9 8 9 10 9 10 11 9 9 10 11 9 9 8 9 7 7 6 5 7 7 4 2 5 4 3 6 5 6 8 8 18 16 14 13 13 13 14 14 14 14
9 10 11 11 12 10 10 10 12 10 9 11 12 11 10 10 9 9 8 8 4 3 7 4 5 2 3 5 6 7 7 9 8 15 16 15 15 14 14 13 13 14 13
10 11 11 12 12 12 12 12 10 11 10 10 11 11 13 11 9 9 7 6 6 5 4 6 6 6 3 6 8 6 8 8 8 13 17 17 17 16 15 14 14 13 13
11 11 7 9 14 13 12 12 12 11 11 13 12 12 10 12 12 9 9 8 5 3 2 1 9 7 6 7 7 6 7 9 7 8 14 14 17 17 16 17 17 16 14
10 11 8 10 17 13 11 12 10 10 11 12 12 11 13 14 10 8 6 10 7 5 4 4 8 7 9 6 3 4 6 6 5 5 8 8 7 10 11 14 12 17 16
9 10 10 10 10 11 10 8 8 10 10 11 12 12 14 9 9 10 11 9 5 8 8 8 10 5 3 3 3 4 6 6 7 6 6 7 7 8 9 8 10 15 17
8 10 10 11 12 11 9 7 8 11 10 11 12 11 12 13 12 12 13 12 10 11 8 6 8 8 7 4 2 4 5 6 7 8 8 9 7 8 8 7 7 11 11
8 9 10 9 10 10 2 7 7 8 10 10 11 12 13 14 13 11 12 13 14 12 12 10 10 9 8 4 2 4 5 6 8 9 8 6 6 8 7 8 9 13 13
8 8 8 9 9 9 5 5 2 9 11 11 10 11 10 11 16 9 11 10 11 10 3 10 10 9 9 7 2 4 7 8 8 6 4 7 7 9 7 6 2 7 5
9 8 9 10 10 8 7 10 7 5 9 10 10 12 15 15 12 10 10 11 11 10 8 6 6 4 5 5 6 6 6 8 7 6 5 4 4 5 4 2 3 4 5
Wind_Direction
174 194 9 262 201 179 265 271 214 261 178 230 235 239 175 176 274 183 174 173 176 186 205 211 213 213 219 215 218 218 222 222 226 230 233 235 238 242 245 244 244 243 246
180 145 153 253 264 149 173 187 238 240 230 199 215 225 233 173 196 236 141 178 187 189 205 211 213 216 218 224 222 221 224 225 226 229 235 241 247 242 245 249 245 241 241
235 177 150 245 223 199 224 178 250 216 242 224 243 197 223 233 173 206 222 179 187 199 200 207 211 215 219 223 229 224 218 225 229 232 235 233 235 241 247 247 247 244 239
269 245 215 210 214 204 226 259 215 188 228 247 233 238 205 235 206 176 209 186 192 190 203 204 207 215 220 224 227 230 218 220 224 223 231 234 234 238 245 247 245 242 239
216 242 279 244 183 253 208 215 226 212 202 233 238 231 261 221 184 208 207 201 216 200 192 197 203 207 219 225 229 230 226 225 226 223 226 233 235 235 241 243 242 239 236
219 226 258 236 243 225 247 243 199 237 178 207 254 200 252 260 237 223 173 210 241 198 220 163 195 206 213 222 226 226 230 228 228 227 229 230 233 233 240 244 240 236 232
206 234 239 245 250 189 207 253 259 236 281 210 256 217 274 221 235 222 211 199 227 206 263 175 185 205 194 210 218 224 227 227 228 226 229 232 235 231 239 243 236 232 230
203 227 224 260 204 254 204 219 238 248 262 257 124 193 243 271 233 221 192 213 223 233 220 191 203 217 263 191 210 218 225 227 228 227 229 234 233 235 238 239 235 227 223
226 212 209 247 334 270 190 216 222 220 253 274 245 257 248 247 280 349 268 213 235 225 231 246 204 208 203 256 206 196 211 219 224 229 231 233 233 233 230 225 230 227 223
215 231 209 204 228 261 271 197 231 224 250 235 199 215 210 249 256 288 64 314 327 306 270 278 260 211 201 212 242 252 190 204 214 224 230 233 234 230 225 218 220 225 224
241 236 240 217 208 227 259 258 268 203 232 257 253 263 189 248 220 198 274 258 237 268 246 284 270 260 211 213 229 232 177 194 205 214 221 230 233 232 226 220 218 220 226
200 213 225 225 220 225 229 240 236 237 257 290 297 263 231 226 223 234 259 252 236 220 200 237 224 279 249 229 215 107 167 193 198 206 216 228 236 241 239 229 222 219 223
222 256 189 209 216 219 239 215 209 249 236 249 233 256 258 211 231 260 316 281 264 263 201 221 232 232 247 248 232 210 176 190 201 204 215 226 234 240 241 242 236 228 227
230 187 269 250 222 240 227 223 213 223 240 230 237 251 278 279 208 213 205 253 287 266 64 279 204 219 228 198 217 147 218 200 198 204 215 222 226 230 235 236 234 230 233
255 194 240 256 248 239 221 227 217 220 241 237 237 239 247 263 286 338 254 230 224 283 320 66 265 205 227 156 212 224 228 228 209 212 204 212 217 221 227 229 231 235 235
251 247 252 232 236 241 232 233 221 219 231 237 233 229 238 264 251 242 227 221 247 262 247 161 236 169 124 324 174 216 253 164 181 197 205 207 211 219 224 224 224 226 232
247 230 236 245 248 239 228 224 243 253 207 234 259 266 229 237 261 255 276 227 209 264 249 304 106 139 117 228 275 235 236 236 239 198 202 208 211 218 223 227 227 227 229
260 254 250 236 237 226 233 224 241 238 227 232 228 248 254 239 223 238 250 217 296 287 264 295 329 296 223 242 232 261 277 279 273 180 196 201 208 218 223 219 219 225 225
269 259 253 251 250 237 230 226 230 237 228 232 238 238 236 247 242 262 283 296 235 281 226 251 266 244 226 203 207 236 251 248 258 167 196 204 206 209 217 223 223 223 225
272 286 272 290 266 238 237 227 213 215 228 232 226 247 236 243 242 232 247 251 254 233 253 255 263 259 258 234 200 244 223 218 259 260 202 209 200 209 213 220 222 220 222
256 261 225 212 251 248 241 232 239 222 223 226 228 231 240 239 253 214 216 233 232 237 219 224 260 284 248 255 234 338 321 315 276 310 290 285 242 209 219 223 231 222 217
250 259 249 245 244 247 245 254 233 236 232 241 235 234 242 237 236 184 203 230 230 224 218 224 233 235 298 269 282 314 301 311 303 317 319 281 290 295 303 293 209 218 206
287 275 266 262 268 271 277 265 254 252 256 254 253 249 247 241 222 219 215 213 212 220 228 246 249 273 304 317 344 311 284 299 285 300 315 287 287 279 276 279 159 184 185
304 304 305 307 299 294 208 86 40 284 278 294 295 277 259 258 254 227 226 211 218 213 214 220 229 248 254 255 236 257 277 277 269 250 227 262 279 297 298 278 169 176 175
307 301 295 295 296 296 108 126 311 283 275 273 266 272 269 271 262 246 225 226 215 221 120 117 106 109 102 90 78 276 258 251 267 282 163 274 299 295 305 318 4 187 193
288 289 307 306 294 273 203 170 188 285 276 269 269 264 231 243 259 229 226 237 231 225 195 175 162 152 167 181 188 231 256 254 266 271 56 288 282 280 327 338 344 151 152